TITAN 3C TRANSTAGE DEB, 43448

Orbit data source: Space-Track

TITAN 3C TRANSTAGE DEB, 43448 is space debris in GEO originally from a launch on Sun, 09 Feb 1969 UTC launched from the Air Force Eastern Test Range (AFETR). Debris objects in space refer to the collection of defunct objects orbiting the Earth. Examples of debris include non-operational satellites, rocket bodies, and fragments generated from explosions, collisions, or faulty payload assembly.

Loading next visibility...
Identifier
43448, 1969-013H
Orbit
GEO
Country
Flag of USUS
Related business
Manufacturer
Martin Marietta
Mission
Spacecraft
Bus & Motor
Unknown
Mass
Unknown
Launch date (UTC)
1969-02-09 (57 years ago)
Launch vehicle
Unknown
Launch site
Air Force Eastern Test Range (AFETR)
Object type
Payload
Rocket body
Debris
Shape & HBR
Unknown
Radar Cross Section
RCS unknown

Expand to show TLE details & history
Last TLE update: 1 month ago

TLE from 1 month ago
0 TITAN 3C TRANSTAGE DEB
1 43448U 69013H   25228.87583198 -.00000028  00000-0  00000-0 0  9991
2 43448   0.4993 144.9432 0292738 354.5950 222.6775  0.98706759 26537
Epoch: 2025-08-16T21:01Z
TLE epoch observation values (Epoch: 2025-08-16T21:01:11.883Z)
Latitude
-0.30485°
Longitude
79.19457°
Altitude
37,167.693 km
Speed
2.992 km/s
True Right ascension
23h 59m 59s
True Declination
0° 18' 16"
Sunlit
Object was in daylight at epoch
Visualization orbit readout
Latitude
Unknown
Longitude
Unknown
Altitude
Unknown
Speed
Unknown
Apparent Right ascension
Unknown
Apparent Declination
Unknown
Sunlit
N/A
Visualization observer readout
Local Sidereal Time
13:54:34
Azimuth
Unknown
Elevation
Unknown
Doppler factor
Unknown
Orbital elements
Apogee altitude
37,479.542 km
Perigee altitude
34,984.81 km
Semi-major axis
42,610.313 km
Eccentricity
0.02927
Inclination
0.4993°
RAAN
144.9432°
Arg. of periapsis
354.595°
True anomaly
220.46374°
Mean anomaly
222.6775°
Eccentric anomaly
221.56469°
Mean motion
0.24676 °/min
Orbital period
1,458.92 mins
BSTAR
0
Loading maneuver chart data...
Computing Atmospheric mass density...

Documentation

Showing up to 5 results
|